Presure
124 123 120 120 177 123 119 114 117 192 197 132 113 124 208 152 131 217 207 128 215 201 134 270 122 358 330 324 317 314 321 325 335 342 334 319 261 247 263 238 218 218 221 204 186 184 190
181 176 149 133 143 140 133 161 195 183 190 178 197 210 143 214 229 227 207 238 213 164 217 168 294 353 337 318 329 315 311 321 324 336 334 324 267 254 233 254 226 205 229 163 201 117 189
138 137 132 172 120 111 101 181 189 165 127 127 116 149 200 212 222 216 196 127 233 240 218 218 264 371 338 321 313 306 306 308 315 319 333 323 311 256 242 259 231 212 205 227 198 199 192
192 179 143 133 123 124 117 162 107 199 190 196 189 195 205 181 207 154 215 226 227 235 229 220 248 268 351 329 314 301 295 295 302 310 317 327 313 266 252 247 249 219 211 205 222 206 195
181 173 154 105 119 127 131 140 177 196 195 208 195 197 210 208 192 214 226 232 221 224 244 224 236 253 328 353 323 307 305 303 296 297 306 321 337 307 254 241 263 224 213 206 199 217 206
171 153 126 117 150 125 180 199 169 129 132 129 189 197 198 206 194 206 209 221 224 235 236 248 234 240 258 379 346 324 309 295 300 302 306 309 320 331 264 247 246 253 217 211 204 195 213
129 104 126 153 90 145 188 113 126 181 144 180 198 199 196 194 204 202 214 204 229 227 224 234 206 234 248 263 367 332 316 325 324 320 327 306 310 321 337 258 228 262 222 215 216 206 197
126 136 132 163 119 183 173 121 162 177 148 190 194 192 196 215 179 208 197 213 216 217 228 221 243 210 235 247 264 350 333 323 315 310 306 315 337 340 335 275 256 251 262 212 210 217 206
132 113 137 128 190 111 161 130 180 175 184 183 174 201 190 193 200 204 199 194 216 223 213 226 231 219 230 236 246 296 338 323 312 309 307 307 331 351 396 344 258 253 258 259 211 211 214
179 108 164 147 179 134 141 144 124 174 182 184 174 186 154 182 205 198 205 184 201 216 215 229 223 237 206 229 232 250 292 334 319 307 309 307 320 326 357 348 297 246 255 257 215 206 214
167 169 184 169 100 185 135 140 183 162 186 182 173 186 192 197 207 195 201 192 215 201 208 210 226 227 209 221 232 236 249 356 330 319 311 307 309 320 332 360 340 252 248 254 255 214 208
119 155 177 135 118 154 181 173 185 190 187 182 175 183 187 195 205 194 190 191 196 207 212 209 231 220 229 203 219 227 234 250 347 340 319 311 308 309 317 339 341 259 244 255 251 242 212
180 137 164 116 150 134 179 128 171 179 182 174 169 181 176 184 191 190 192 205 179 212 215 214 223 227 221 230 200 225 228 238 250 354 348 321 314 314 316 321 331 273 244 247 253 255 218
169 170 177 119 132 183 181 128 174 157 181 188 179 181 184 186 192 193 179 201 197 187 206 209 212 211 223 221 222 198 226 227 238 251 345 365 331 319 317 330 325 344 251 241 255 248 240
173 158 181 182 179 181 174 169 184 181 181 199 183 183 187 181 181 193 200 202 201 191 185 213 217 211 208 225 219 216 203 217 224 231 252 338 364 355 322 317 337 337 258 242 251 250 246
166 176 161 169 169 187 183 188 177 184 181 170 183 190 181 181 164 188 146 165 190 200 198 194 198 215 218 213 222 220 211 197 222 227 233 251 326 366 381 328 328 340 301 250 246 248 250
172 156 137 145 163 174 175 175 191 189 191 191 192 190 183 151 187 185 142 151 171 154 157 189 184 209 217 214 225 215 224 212 210 218 228 210 252 311 360 374 332 335 347 261 236 246 246
179 165 180 189 189 189 191 168 193 173 181 186 178 197 200 136 185 196 193 130 196 194 181 133 195 207 214 220 199 224 210 219 223 195 222 223 234 248 303 351 365 379 340 326 250 234 249
186 187 183 168 171 166 158 165 172 180 179 155 174 184 188 196 192 190 190 185 155 165 187 189 197 206 176 216 205 216 229 208 215 218 222 217 225 231 246 293 340 353 367 392 304 233 234
175 189 165 192 176 144 165 175 175 190 173 170 183 186 202 192 180 151 148 146 144 151 165 194 187 205 173 215 204 205 226 218 212 212 212 207 216 221 228 244 284 329 342 365 387 259 220
190 178 171 163 191 157 194 165 191 178 195 191 178 190 184 170 183 181 156 142 192 174 200 190 190 187 202 208 214 195 197 220 219 216 206 214 198 219 218 227 239 269 324 337 363 384 197
206 202 183 141 159 168 201 201 203 199 191 188 184 172 172 179 165 198 192 192 197 182 196 203 190 208 192 152 161 219 205 227 216 222 216 198 216 210 215 218 225 238 258 322 333 361 197
200 194 207 183 184 197 195 201 205 196 192 200 171 192 194 199 210 202 195 187 170 190 188 197 193 193 205 200 155 201 212 208 186 216 222 209 206 213 200 213 215 223 234 250 294 336 321
176 175 179 186 173 177 190 183 207 151 203 205 201 200 193 195 192 185 198 177 193 194 181 197 206 195 191 197 219 146 206 209 188 167 178 219 206 210 210 207 206 220 219 227 240 261 305
150 198 195 191 179 173 171 123 139 165 143 131 152 207 216 207 181 198 135 190 183 194 176 203 187 198 170 239 225 152 213 201 202 204 201 207 207 202 186 213 220 211 213 216 218 228 241
188 196 180 186 186 191 138 135 197 143 171 161 156 197 145 154 192 205 197 189 196 182 185 209 201 193 199 219 205 164 203 209 199 190 204 155 146 190 211 205 206 210 214 208 213 214 215
201 178 168 165 185 135 159 147 210 197 159 197 198 202 208 209 200 198 196 200 189 185 206 190 186 188 206 207 215 193 188 225 209 181 201 202 232 201 187 207 199 209 210 210 204 212 208
202 186 197 178 209 196 206 201 184 173 174 211 187 200 211 181 186 206 194 190 200 201 205 195 186 195 200 217 211 210 180 223 212 220 221 223 218 220 230 198 202 209 206 226 208 215 216
203 202 204 210 206 209 202 210 196 212 214 214 197 202 206 206 192 193 196 186 184 197 213 196 152 196 214 222 216 232 210 217 227 219 225 147 193 235 218 223 199 221 223 213 162 204 206
Wind_Speed
23 21 21 24 32 28 27 19 23 45 48 35 25 35 55 32 40 58 56 33 65 54 34 87 32 28 21 13 6 13 20 27 35 52 73 82 97 93 94 92 86 80 84 86 82 75 76
30 31 25 31 34 34 35 41 45 49 51 49 56 59 37 59 63 61 57 69 63 41 65 41 86 31 18 15 6 7 14 22 31 44 65 78 98 96 88 94 87 84 85 61 88 34 77
32 29 30 35 25 17 2 42 44 45 37 37 29 44 61 65 63 62 49 34 65 74 65 62 85 25 23 17 9 4 8 16 25 35 52 74 85 99 92 95 91 89 88 89 82 85 79
31 36 32 31 28 32 24 41 13 47 52 54 58 61 63 54 65 32 61 65 65 69 62 61 79 89 23 18 8 5 9 13 19 29 41 60 81 99 97 93 95 92 91 89 89 87 80
35 37 35 9 29 36 39 30 47 49 51 55 57 61 64 63 59 65 67 68 63 60 75 61 72 79 57 12 13 12 10 15 23 28 35 46 59 86 98 92 94 92 91 89 87 87 85
36 35 27 25 39 29 47 43 47 42 38 41 56 57 64 65 63 66 65 71 68 70 70 74 69 72 82 17 10 10 11 14 22 28 36 43 53 67 100 97 95 93 94 91 88 84 86
31 14 28 38 12 37 46 29 46 47 37 50 58 60 63 62 66 67 70 61 71 71 65 72 56 68 79 87 12 12 11 8 8 13 21 41 49 63 70 101 92 96 96 91 90 87 84
30 35 31 41 30 44 44 42 35 45 46 50 56 55 64 63 56 67 66 71 72 68 71 65 74 57 67 77 88 14 15 8 2 7 13 16 27 51 66 101 98 93 95 90 88 89 86
34 19 35 32 43 27 35 41 44 45 47 47 52 62 58 63 60 62 64 66 72 70 66 68 68 59 65 69 78 69 20 15 11 6 5 8 13 15 21 67 97 91 91 93 88 87 87
41 18 37 35 44 38 35 44 45 46 49 49 50 55 49 56 61 59 65 57 65 70 68 68 63 71 52 65 68 80 73 20 14 13 9 5 6 9 15 54 87 90 90 91 90 87 86
40 40 41 43 18 41 44 47 47 46 48 49 49 55 60 65 59 57 61 58 68 64 66 62 64 66 53 59 65 71 76 27 22 12 10 5 4 8 14 21 62 94 90 91 94 91 86
28 42 43 39 38 44 47 49 49 49 48 49 50 52 58 60 59 58 58 56 63 68 65 65 66 62 65 49 59 59 66 76 32 14 12 8 5 11 17 21 48 95 90 90 90 94 87
49 38 42 37 46 43 50 48 47 46 47 46 50 51 50 53 63 58 57 64 52 68 65 61 65 63 59 62 46 58 59 67 74 32 9 10 9 10 17 27 40 88 89 87 90 90 85
44 42 47 41 45 51 52 44 48 49 51 54 49 51 54 56 62 61 51 63 61 54 67 64 61 59 61 57 54 41 55 57 66 72 37 9 9 11 14 20 33 33 90 84 86 84 86
46 45 50 52 51 49 51 52 52 51 53 58 53 53 58 53 54 62 64 63 61 56 52 66 58 59 57 59 53 49 42 51 53 59 69 39 16 9 13 17 22 31 91 82 81 81 83
43 52 42 45 50 52 52 54 51 55 53 46 54 60 55 56 43 62 30 40 58 59 60 60 58 56 55 55 55 51 43 36 49 51 57 66 42 17 5 13 20 24 68 81 76 76 78
46 44 51 47 47 50 53 50 56 55 57 58 61 59 56 39 57 56 29 39 44 40 39 53 51 51 53 50 57 48 48 40 42 44 50 41 62 46 16 7 11 19 23 84 68 70 72
56 44 53 59 58 58 57 49 62 50 55 58 52 60 61 33 57 61 59 27 61 60 53 28 55 59 54 49 46 54 45 44 45 30 44 44 52 56 46 19 8 3 18 47 72 62 68
64 65 61 52 54 51 48 52 54 56 55 42 50 58 56 61 61 58 58 56 42 45 54 54 58 54 35 46 45 50 53 41 42 41 39 37 44 47 53 45 19 7 0 7 60 60 58
52 66 51 67 59 44 55 59 58 67 57 52 60 59 63 58 52 38 36 35 34 36 44 55 52 58 33 44 44 41 50 42 40 39 34 33 33 36 42 48 44 15 8 3 7 71 58
69 61 61 53 69 52 68 52 66 58 67 63 59 63 56 49 56 55 44 37 56 49 60 54 53 54 55 51 42 47 44 42 38 37 34 33 27 29 29 36 41 43 13 7 4 13 54
68 72 64 49 54 59 73 72 71 69 65 62 57 49 54 60 51 64 58 56 58 53 60 58 52 56 49 23 35 39 38 42 37 34 33 31 31 27 21 23 28 35 38 12 5 8 53
66 66 71 65 67 71 71 69 70 67 62 67 54 67 64 71 68 64 60 58 49 56 60 59 53 51 52 52 36 35 37 36 33 34 29 30 30 26 20 16 15 20 25 27 17 4 14
60 62 62 68 62 66 67 67 72 51 65 70 73 72 64 64 63 61 63 56 60 57 56 61 61 54 52 53 44 27 40 29 29 34 30 28 32 31 26 21 15 13 10 12 12 12 2
59 73 75 74 69 61 60 43 54 56 55 45 53 72 70 69 62 70 48 60 60 62 53 65 60 56 46 43 38 36 36 43 40 33 27 33 35 32 28 31 26 17 13 11 7 8 9
75 75 72 76 77 79 53 54 74 56 65 55 55 73 52 56 71 72 68 64 67 61 63 70 63 59 59 50 48 47 43 39 43 57 40 36 34 37 37 37 35 24 25 25 24 23 27
80 73 67 66 77 54 66 64 81 78 66 78 78 77 76 71 73 72 73 72 69 68 72 65 61 63 66 58 51 53 43 49 43 44 54 44 41 39 33 39 42 38 37 33 37 36 39
79 73 78 72 82 77 81 79 74 72 69 81 72 75 77 61 68 76 73 72 76 76 72 69 61 69 69 63 57 55 47 53 51 54 54 53 50 44 38 44 48 48 45 39 43 43 46
81 81 83 86 81 86 86 89 81 92 88 87 83 84 81 78 68 77 74 76 74 79 80 71 49 65 71 69 64 66 54 57 59 59 60 46 50 53 45 47 56 43 43 51 43 54 53
Wind_Direction
301 314 320 322 325 320 324 333 329 336 338 323 308 322 344 340 318 347 344 314 337 346 313 3 301 5 3 356 292 243 229 215 208 206 205 207 215 217 215 216 214 213 213 218 224 225 225
314 310 319 304 304 308 312 323 340 331 336 332 342 350 332 347 354 352 346 355 341 327 344 329 12 4 2 1 342 263 239 219 207 207 206 205 212 215 216 215 213 215 213 215 220 225 225
290 297 300 317 312 327 282 336 338 330 326 328 325 333 347 352 355 354 348 320 358 2 345 351 10 3 2 353 337 323 245 226 213 207 209 205 206 214 214 214 212 212 216 215 221 222 223
304 307 295 300 311 312 309 326 344 342 340 342 340 343 349 345 350 339 357 358 359 5 354 354 8 15 357 349 330 280 252 235 224 215 209 210 206 211 214 214 212 212 214 217 216 221 224
303 305 298 326 314 308 309 332 331 339 340 349 346 347 354 352 347 358 360 1 359 0 10 2 8 13 16 337 315 302 268 242 226 220 218 213 212 207 213 214 213 212 215 217 218 218 220
293 295 298 311 303 324 322 332 327 323 329 326 345 349 348 353 346 355 360 2 3 7 9 10 9 11 17 10 336 300 269 262 244 232 222 214 213 213 210 213 213 211 215 215 218 220 219
286 279 292 303 256 307 321 334 314 333 334 337 349 353 351 350 353 352 358 1 5 7 8 10 3 9 15 20 11 1 338 303 224 219 220 219 215 214 214 211 212 210 214 216 216 218 222
280 285 290 303 304 313 318 313 323 329 327 344 349 351 354 355 345 356 352 1 3 4 9 8 10 3 13 18 20 17 11 17 217 230 236 220 230 220 217 210 213 212 211 215 218 218 221
278 302 292 296 308 310 318 308 326 328 334 337 334 351 351 350 354 356 354 355 2 4 7 7 10 5 11 18 18 22 19 18 8 328 273 264 257 207 212 215 213 213 212 210 217 219 220
287 280 297 298 306 304 318 312 314 328 332 336 331 347 337 347 354 355 360 350 359 2 6 8 9 12 5 14 18 20 22 18 5 357 335 309 275 200 202 206 208 212 212 211 216 220 219
294 290 290 299 298 309 306 311 318 325 331 333 334 344 348 350 351 350 356 353 3 0 2 3 9 11 7 13 18 20 21 23 18 350 345 329 260 215 209 205 204 209 211 212 212 218 219
296 289 290 299 305 305 309 310 315 322 328 331 332 342 346 350 351 348 350 350 357 1 359 2 7 9 13 7 14 18 22 22 23 11 343 323 259 214 207 214 207 207 210 211 212 213 219
277 292 288 300 297 304 303 309 317 319 325 326 328 336 338 343 346 344 348 353 352 0 1 360 6 8 10 14 11 15 20 22 23 28 359 332 290 242 216 216 215 208 211 210 211 213 218
278 286 288 299 300 298 303 309 312 312 321 325 327 333 336 339 344 343 342 351 350 353 359 0 359 5 6 12 12 10 15 20 22 23 23 351 284 265 241 224 219 226 211 212 212 211 214
279 287 283 287 294 297 301 305 309 314 319 320 325 328 333 333 337 340 344 347 347 349 352 356 359 1 3 5 10 11 11 15 21 23 22 24 12 269 246 234 227 221 211 214 212 212 213
283 277 284 290 293 293 298 300 309 311 314 318 322 323 328 329 332 336 336 346 343 346 351 351 355 358 3 2 5 9 9 12 15 21 23 22 25 12 292 245 233 228 214 215 214 213 213
277 284 289 289 291 295 297 300 301 305 309 314 317 318 322 320 329 332 323 329 342 337 338 348 349 349 357 359 2 2 7 9 8 12 19 18 24 28 16 356 253 237 232 216 215 214 214
274 275 282 282 285 287 291 301 297 304 307 310 313 317 321 308 325 329 330 313 335 336 340 338 345 348 349 355 357 359 359 5 7 9 14 16 19 23 27 20 7 311 234 220 217 214 216
269 271 275 282 287 288 292 296 299 300 304 308 310 312 316 319 322 324 324 324 323 328 335 338 339 344 345 349 350 354 354 358 2 3 9 10 13 17 20 24 17 20 147 233 220 214 214
271 270 278 275 282 285 289 289 295 293 298 303 304 307 311 313 313 312 312 313 320 324 324 333 336 338 337 342 341 348 348 351 351 356 1 359 8 11 16 18 22 28 43 118 209 219 210
265 270 275 281 276 283 281 294 286 293 292 293 299 304 306 303 309 312 307 305 317 319 326 329 330 331 333 334 339 336 342 342 344 343 348 351 353 7 11 13 16 22 32 55 172 208 210
270 267 273 285 284 288 282 283 286 285 289 294 297 297 300 303 304 309 307 310 315 317 320 324 325 329 326 314 325 339 337 338 337 340 335 343 343 342 359 7 12 15 23 35 78 182 216
265 268 269 271 270 278 277 281 284 286 290 289 290 296 302 303 303 303 302 308 307 312 314 316 318 320 324 321 315 329 333 332 327 326 330 325 328 333 328 342 348 6 14 22 23 130 203
266 268 270 273 285 285 279 285 283 290 287 289 291 294 297 298 300 299 301 301 305 306 308 313 317 315 315 315 320 300 320 328 316 317 316 314 316 316 318 311 307 339 339 6 10 18 354
275 263 266 271 279 283 277 284 290 283 287 290 290 291 291 293 295 296 293 300 300 302 300 308 305 311 305 318 312 298 316 310 308 318 306 308 306 306 315 303 302 275 268 258 244 285 269
269 266 276 278 279 279 283 285 281 284 286 283 285 289 284 286 293 293 296 295 297 296 300 305 304 305 305 307 303 306 303 304 299 306 307 304 297 309 292 291 295 285 267 260 241 232 233
268 274 275 276 275 280 280 278 281 282 282 286 287 287 290 290 292 292 293 294 292 293 296 294 296 299 302 300 299 294 304 314 297 299 301 304 309 291 286 279 288 280 278 268 263 248 238
271 265 271 274 275 275 278 277 278 281 281 288 282 285 288 284 287 287 289 287 291 291 294 291 292 294 295 298 296 294 299 310 300 303 301 304 298 293 279 282 272 272 278 272 269 265 256
274 275 277 280 280 283 284 284 281 287 285 287 282 283 283 282 281 283 286 280 282 287 289 289 288 291 290 299 295 307 297 307 304 300 300 282 290 295 282 276 277 264 261 264 264 271 265